Hourly Data Report for March 21, 2018

MIRAMICHI RCS
NEW BRUNSWICK

47°00'34.000" N
65°27'54.000" W
33.00 m
8100989
71744
ACQ

Download Data

Hourly Data (March 2018)
Hourly Data Report for March 21, 2018
TIME
LST
Temp Definition
°C
Dew Point Definition
°C
Rel Hum Definition
%
Precip. Amount Definition
mm

Wind Dir Definition
10's deg

Wind Spd Definition
km/h
Visibility Definition
km
Stn Press Definition
kPa
Hmdx Definition


Wind Chill Definition


Weather Definition


00:00 -7.3 -10.8 76 0.0 26 6   100.84   -10 LegendNANA
01:00 -5.5 -10.2 69 0.0 31 5   100.84   -8 LegendNANA
02:00 -5.6 -11.3 64 0.0 31 4   100.89   -7 LegendNANA
03:00 -8.2 -12.5 71 0.0 23 4   100.97   -10 LegendNANA
04:00 -10.0 -12.5 82 0.0 29 3   101.00   -12 LegendNANA
05:00 -7.6 -13.0 65 0.0 2 5   100.98   -10 LegendNANA
06:00 -10.9 -14.5 75 0.0 6 4   101.03   -13 LegendNANA
07:00 -11.3 -15.4 72 0.0 8 2   101.10   -13 LegendNANA
08:00 -6.8 -12.2 65 0.0 7 4   101.14   -9 LegendNANA
09:00 -1.8 -9.3 57 0.0 5 14   101.17   -6 LegendNANA
10:00 -0.8 -7.2 62 0.0 7 25   101.21   -7 LegendNANA
11:00 -0.1 -7.3 58 0.0 6 20   101.17   -5 LegendNANA
12:00 0.9 -5.8 61 0.0 6 20   101.12     LegendNANA
13:00 0.3 -6.0 62 0.0 7 26   101.10     LegendNANA
14:00 0.2 -6.3 61 0.0 7 25   101.09     LegendNANA
15:00 -0.3 -6.9 61 0.0 7 27   101.07   -7 LegendNANA
16:00 -0.6 -6.3 65 0.0 7 27   101.04   -7 LegendNANA
17:00 -1.7 -5.6 75 0.0 7 26   101.04   -8 LegendNANA
18:00 -2.2 -5.8 76 0.0 7 24   101.14   -9 LegendNANA
19:00 -2.8 -6.3 77 0.0 6 16   101.19   -8 LegendNANA
20:00 -2.9 -6.6 76 0.0 5 13   101.20   -8 LegendNANA
21:00 -3.4 -6.7 78 0.0 5 12   101.21   -8 LegendNANA
22:00 -3.5 -6.2 81 0.0 4 8   101.20   -7 LegendNANA
23:00 -3.7 -6.3 82 0.0 3 6   101.25   -6 LegendNANA

Notes on Data Quality.

Legend

  • E = Estimated
  • M = Missing
  • NA = Not Available*
  • [empty] = Indicates an unobserved value
Date modified: